Location: Observatoire
(46.1952°N, 5.3391°E)
Time: 03:26:20
(UTC+02:00)

ITAMSAT 1 - Pass Details

Date: 23 April 2024
Orbit: 782 x 796 km, 98.8° (Epoch: 24 May)

Event Time Altitude Azimuth Distance (km) Brightness Sun altitude
Exits shadow 22:07:21 10° 172° (S) 2,336 9.7 -14.5°
Maximum altitude 22:12:30 72° 257° (WSW) 841 7.9 -15.2°
Drops below altitude 10° 22:17:45 10° 342° (NNW) 2,375 11.0 -15.9°
Sets 22:20:06 0° 344° (NNW) 3,308 11.8 -16.2°
